Regional Weather Roundup
Issued by NWS

Home | Current Version | Previous Version | Text Only | Print | Product List | Glossary Off
Versions: 1 2 3 4 5 6 7 8 9 10 11 12 13 14 15 16 17 18 19 20 21 22 23 24 25 26 27 28 29 30 31 32 33 34 35 36 37 38 39 40 41 42 43 44 45 46 47 48 49 50

156
ASUS43 KDTX 011401
RWRMI
MICHIGAN HOURLY REGIONAL WEATHER ROUNDUP
NATIONAL WEATHER SERVICE DETROIT/PONTIAC MI
1000 AM EDT SAT OCT 01 2016

NOTE: "FAIR" INDICATES FEW OR NO CLOUDS BELOW 12,000 FEET WITH NO
SIGNIFICANT WEATHER AND/OR OBSTRUCTION TO VISIBILITY.

MIZ047>049-052>055-059>063-066>070-074>076-081>083-011500-
SOUTHEAST LOWER MICHIGAN

CITY           SKY/WX    TMP DP  RH WIND       PRES   REMARKS
ADRIAN         PTSUNNY   60  58  92 S6        30.06S
ALMA           CLOUDY    58  58 100 NE5       30.08S
ANN ARBOR      CLOUDY    61  60  97 E6        30.06R
BAD AXE        DRIZZLE   57  57  99 MISG      30.12S
CARO           CLOUDY    58  57  98 E3        30.09F FOG
DETROIT CITY   CLOUDY    61  61 100 SE7       30.07S
DETROIT        CLOUDY    61  61 100 E6        30.07S FOG
FLINT          CLOUDY    58  57  97 E9        30.08R FOG
GROSSE ILE     PTSUNNY   64  60  86 S9        30.06S
HILLSDALE      CLOUDY    59  55  88 SE5       30.04S FOG
HOWELL         CLOUDY    58  58  99 E9        30.06S FOG

CITY           SKY/WX    TMP DP  RH WIND       PRES   REMARKS
JACKSON        CLOUDY    60  59  96 SE7       30.05R
LAMBERTVILLE   MOSUNNY   64  58  83 SE5       30.06S
LANSING        CLOUDY    59  56  89 E9        30.06R FOG
LAPEER         CLOUDY    57  56  97 E7        30.09S
MASON          CLOUDY    58  57  97 E7        30.05S FOG
MONROE         CLOUDY    61  59  92 S3        30.06S
MT. CLEMENS    DRIZZLE   58  58 100 E10       30.06S FOG
PONTIAC        CLOUDY    57  56  96 E7        30.06S FOG
PORT HURON     DRIZZLE   57  57 100 E8        30.10S
TRI CITIES     CLOUDY    58  57  97 E13       30.10S
MIDLAND        CLOUDY    58  58  98 E10       30.09S
TROY           CLOUDY    60  58  94 E6        30.09S FOG
SAGINAW HB     CLOUDY    59  55  88 NE8       30.08F
$$
MIZ043>046-050>051-056>058-064>065-071>073-077>080-011500-
SOUTHWEST LOWER MICHIGAN

CITY           SKY/WX    TMP DP  RH WIND       PRES   REMARKS
BATTLE CREEK   CLOUDY    59  58  96 E6        30.04S FOG
BENTON HARBOR  CLOUDY    60  57  89 NE7       30.02R
BIG RAPIDS     DRIZZLE   58  57  98 NE6       30.08F
COLDWATER      CLOUDY    62  60  93 SE12      30.03S
FREMONT        CLOUDY    58  57  99 NE6       30.06F
HOLLAND        LGT RAIN  58  57  97 NE6       30.04F FOG
GRAND RAPIDS   LGT RAIN  58  56  93 E8        30.05S
IONIA          CLOUDY    57  56  97 NE7       30.05S FOG
KALAMAZOO      LGT RAIN  59  56  89 E5        30.04S VSB 1
LUDINGTON      LGT RAIN  57  56  98 E7        30.08F
MARSHALL       CLOUDY    59  59  99 E6        30.03F
MOUNT PLEASANT CLOUDY    58  58  97 E8        30.08S
MUSKEGON       LGT RAIN  59  57  93 NE8       30.06S FOG
SOUTH HAVEN    CLOUDY    60  59  97 NE6       30.02S
$$
MIZ016>042-011500-
NORTHERN LOWER MICHIGAN

CITY           SKY/WX    TMP DP  RH WIND       PRES   REMARKS
ALPENA         CLOUDY    58  55  90 E5        30.16F
BEAVER ISLAND  CLOUDY    59  55  85 NE9       30.16F
BELLAIRE       DRIZZLE   57  55  93 N5        30.14F
CADILLAC       DRIZZLE   55  54  94 E10       30.10S
CHARLEVOIX     DRIZZLE   59  54  83 E7        30.18S
FRANKFORT      CLOUDY    60  54  80 E3        30.11F
GAYLORD        LGT RAIN  56  52  86 E7        30.15S
GRAYLING       LGT RAIN  56  55  95 NE8       30.13F
HARBOR SPRINGS RAIN      58  55  89 E9        30.16R
HOUGHTON LAKE  CLOUDY    56  54  93 E10       30.12F
MANISTEE       PTSUNNY   58  55  90 E9        30.09F
OSCODA         DRIZZLE   58  57  96 E6        30.13S
PELLSTON       LGT RAIN  58  54  86 E13       30.17S
ROGERS CITY    CLOUDY    57  55  90 E6        30.17F
TRAVERSE CITY  LGT RAIN  60  54  80 E7        30.11F
$$
MIZ007>008-015-011500-
EASTERN UPPER MICHIGAN

CITY           SKY/WX    TMP DP  RH WIND       PRES   REMARKS
KINROSS        CLOUDY    56  49  77 NE9       30.19F
MACKINAC ISLAN CLOUDY    58  52  83 NE12      30.18R
NEWBERRY       CLOUDY    56  50  82 E8        30.20F
S. S. MARIE    CLOUDY    58  48  69 E8        30.20F
MUNISING         N/A     59  52  77 N5        30.20S
$$
MIZ004>006-011>014-085-011500-
CENTRAL UPPER MICHIGAN

CITY           SKY/WX    TMP DP  RH WIND       PRES   REMARKS
MANISTIQUE     CLOUDY    56  52  84 NE7       30.18F
ESCANABA       CLOUDY    57  53  86 NE9       30.18R
MENOMINEE      CLOUDY    60  57  89 NE13      30.15S
SAWYER-GWINN   CLOUDY    55  50  82 NE7       30.21S
$$
MIZ001>003-009>011-084-011500-
WESTERN UPPER MICHIGAN

CITY           SKY/WX    TMP DP  RH WIND       PRES   REMARKS
IRON MOUNTAIN  CLOUDY    56  51  84 N7        30.18S
HOUGHTON       CLOUDY    59  55  87 E6        30.22F
COPPER HARBOR    N/A     58  56  93 CALM      30.22F
IRONWOOD       CLOUDY    51  50  96 CALM      30.23S
$$

ABBREVIATIONS USED IN REMARKS
   TC - TEMPERATURE IN CELSIUS
  WCI - WIND CHILL INDEX
   HX - HEAT INDEX
  VSB - VISIBILITY





USA.gov is the U.S. government's official web portal to all federal, state and local government web resources and services.